QPF
0.00 0.00 0.00 0.00 0.00 0.00 0.00 0.00 0.00 0.00 0.00 0.00 0.00 0.00 0.00 0.00 0.00 0.00 0.00 0.00 0.10 0.09 0.00 0.01 0.02 0.02 0.01 0.00 0.00 0.02 0.01 0.03 0.00 0.00 0.00 0.00 0.00 0.00 0.00 0.00 0.00 0.00 0.00
0.00 0.00 0.00 0.00 0.00 0.00 0.00 0.00 0.00 0.00 0.00 0.00 0.00 0.00 0.00 0.00 0.00 0.00 0.00 0.00 0.00 0.03 0.02 0.00 0.01 0.03 0.12 0.10 0.04 0.14 0.09 0.05 0.05 0.04 0.00 0.00 0.00 0.00 0.00 0.00 0.00 0.00 0.00
0.00 0.00 0.00 0.00 0.00 0.00 0.00 0.00 0.00 0.00 0.00 0.00 0.00 0.00 0.00 0.00 0.00 0.00 0.00 0.00 0.00 0.00 0.03 0.05 0.04 0.07 0.27 0.50 0.78 0.87 0.74 0.46 0.22 0.11 0.05 0.00 0.00 0.00 0.00 0.01 0.00 0.00 0.00
0.01 0.00 0.00 0.00 0.00 0.00 0.00 0.00 0.00 0.00 0.00 0.00 0.00 0.00 0.00 0.00 0.00 0.00 0.00 0.00 0.00 0.01 0.02 0.04 0.11 0.07 0.16 0.22 0.36 0.56 0.66 0.69 0.31 0.19 0.06 0.01 0.00 0.00 0.00 0.00 0.00 0.00 0.00
0.00 0.00 0.00 0.00 0.00 0.00 0.00 0.00 0.00 0.00 0.00 0.00 0.00 0.00 0.00 0.00 0.00 0.00 0.00 0.00 0.00 0.02 0.06 0.10 0.11 0.10 0.12 0.08 0.05 0.06 0.06 0.07 0.19 0.17 0.05 0.03 0.00 0.00 0.00 0.00 0.00 0.01 0.00
0.00 0.00 0.00 0.00 0.00 0.00 0.00 0.00 0.00 0.00 0.00 0.00 0.00 0.00 0.00 0.00 0.00 0.00 0.00 0.00 0.00 0.00 0.06 0.16 0.17 0.19 0.17 0.10 0.05 0.07 0.11 0.08 0.04 0.05 0.03 0.01 0.00 0.00 0.00 0.00 0.00 0.00 0.00
0.00 0.00 0.00 0.00 0.00 0.00 0.00 0.00 0.00 0.00 0.00 0.00 0.00 0.00 0.00 0.00 0.00 0.00 0.00 0.00 0.00 0.00 0.02 0.22 0.27 0.23 0.29 0.25 0.15 0.14 0.29 0.42 0.21 0.14 0.12 0.05 0.01 0.00 0.01 0.01 0.00 0.00 0.00
0.00 0.00 0.00 0.00 0.00 0.00 0.00 0.00 0.00 0.00 0.00 0.00 0.00 0.00 0.00 0.00 0.00 0.00 0.00 0.00 0.00 0.00 0.02 0.32 0.42 0.34 0.26 0.21 0.24 0.23 0.28 0.46 0.49 0.17 0.06 0.03 0.01 0.00 0.01 0.01 0.02 0.00 0.00
0.00 0.00 0.00 0.00 0.00 0.00 0.00 0.00 0.00 0.00 0.00 0.00 0.00 0.00 0.00 0.00 0.00 0.01 0.01 0.01 0.01 0.00 0.01 0.07 0.16 0.18 0.15 0.12 0.19 0.23 0.18 0.18 0.35 0.33 0.08 0.06 0.06 0.06 0.04 0.01 0.00 0.00 0.00
0.00 0.00 0.00 0.00 0.00 0.00 0.00 0.00 0.00 0.00 0.00 0.00 0.00 0.00 0.00 0.00 0.00 0.01 0.03 0.02 0.01 0.00 0.02 0.04 0.18 0.22 0.20 0.13 0.09 0.08 0.06 0.06 0.15 0.28 0.27 0.11 0.10 0.13 0.14 0.12 0.07 0.01 0.00
0.00 0.00 0.00 0.00 0.00 0.00 0.00 0.00 0.00 0.00 0.00 0.00 0.00 0.00 0.00 0.00 0.00 0.01 0.02 0.03 0.05 0.05 0.06 0.08 0.25 0.16 0.21 0.15 0.10 0.04 0.02 0.06 0.18 0.20 0.18 0.14 0.13 0.17 0.14 0.12 0.12 0.04 0.01
0.00 0.00 0.00 0.00 0.00 0.00 0.00 0.00 0.00 0.00 0.00 0.00 0.00 0.00 0.00 0.00 0.00 0.00 0.00 0.01 0.02 0.03 0.08 0.15 0.32 0.25 0.19 0.12 0.13 0.08 0.03 0.07 0.22 0.30 0.28 0.25 0.25 0.19 0.16 0.09 0.05 0.03 0.02
0.00 0.00 0.00 0.00 0.00 0.00 0.00 0.00 0.00 0.00 0.00 0.00 0.00 0.00 0.00 0.00 0.00 0.00 0.00 0.00 0.00 0.01 0.07 0.12 0.22 0.38 0.32 0.23 0.12 0.07 0.06 0.11 0.26 0.19 0.16 0.34 0.26 0.17 0.12 0.09 0.06 0.03 0.01
0.00 0.00 0.00 0.00 0.00 0.00 0.00 0.00 0.00 0.00 0.00 0.00 0.00 0.00 0.00 0.00 0.00 0.00 0.00 0.00 0.00 0.01 0.06 0.14 0.20 0.46 0.63 0.58 0.22 0.14 0.10 0.08 0.15 0.09 0.05 0.11 0.15 0.15 0.16 0.10 0.05 0.04 0.03
0.00 0.00 0.00 0.00 0.00 0.00 0.00 0.00 0.00 0.00 0.00 0.00 0.00 0.00 0.00 0.00 0.00 0.00 0.00 0.00 0.00 0.00 0.01 0.05 0.10 0.31 0.73 0.34 0.21 0.10 0.06 0.07 0.06 0.02 0.03 0.03 0.07 0.10 0.10 0.08 0.04 0.02 0.02
0.00 0.00 0.00 0.00 0.00 0.00 0.00 0.00 0.00 0.00 0.00 0.00 0.00 0.00 0.00 0.00 0.00 0.00 0.00 0.00 0.00 0.02 0.09 0.09 0.13 0.10 0.36 0.44 0.19 0.25 0.10 0.13 0.03 0.00 0.04 0.06 0.05 0.05 0.05 0.04 0.04 0.03 0.03
0.00 0.00 0.00 0.00 0.00 0.01 0.01 0.01 0.01 0.00 0.00 0.01 0.01 0.00 0.00 0.00 0.00 0.01 0.01 0.02 0.01 0.01 0.04 0.09 0.16 0.21 0.20 0.44 0.24 0.31 0.15 0.09 0.05 0.01 0.10 0.05 0.04 0.05 0.02 0.03 0.02 0.02 0.02
0.00 0.00 0.00 0.01 0.01 0.02 0.02 0.02 0.01 0.00 0.01 0.01 0.01 0.00 0.00 0.01 0.01 0.01 0.02 0.03 0.04 0.05 0.06 0.10 0.09 0.11 0.21 0.21 0.48 0.34 0.18 0.07 0.06 0.05 0.05 0.05 0.03 0.02 0.03 0.01 0.01 0.00 0.00
0.01 0.01 0.01 0.02 0.03 0.05 0.04 0.03 0.02 0.01 0.00 0.01 0.03 0.03 0.03 0.04 0.04 0.04 0.04 0.04 0.05 0.04 0.05 0.03 0.02 0.05 0.11 0.24 0.28 0.34 0.26 0.17 0.06 0.04 0.04 0.05 0.05 0.05 0.03 0.00 0.00 0.00 0.00
0.01 0.01 0.02 0.04 0.06 0.08 0.08 0.06 0.03 0.01 0.01 0.00 0.01 0.02 0.02 0.03 0.04 0.06 0.07 0.07 0.06 0.07 0.03 0.03 0.05 0.09 0.13 0.20 0.28 0.39 0.31 0.14 0.13 0.09 0.04 0.06 0.05 0.04 0.01 0.00 0.00 0.00 0.00
0.03 0.03 0.05 0.08 0.09 0.06 0.04 0.05 0.02 0.00 0.00 0.00 0.00 0.00 0.00 0.00 0.00 0.00 0.01 0.02 0.04 0.03 0.02 0.02 0.04 0.07 0.13 0.20 0.31 0.35 0.34 0.32 0.20 0.13 0.09 0.05 0.06 0.03 0.01 0.01 0.01 0.02 0.01
0.04 0.05 0.05 0.05 0.03 0.01 0.00 0.00 0.00 0.00 0.00 0.00 0.00 0.00 0.00 0.00 0.00 0.00 0.00 0.00 0.00 0.00 0.01 0.01 0.01 0.04 0.08 0.13 0.21 0.33 0.47 0.51 0.43 0.37 0.24 0.14 0.06 0.03 0.02 0.02 0.04 0.03 0.01
0.04 0.03 0.02 0.00 0.00 0.00 0.00 0.00 0.00 0.00 0.00 0.00 0.00 0.00 0.00 0.00 0.00 0.00 0.00 0.00 0.00 0.00 0.00 0.00 0.00 0.01 0.03 0.06 0.10 0.16 0.23 0.29 0.33 0.38 0.38 0.30 0.17 0.11 0.06 0.05 0.03 0.02 0.01
0.00 0.00 0.00 0.00 0.00 0.00 0.00 0.00 0.00 0.00 0.00 0.00 0.00 0.00 0.00 0.00 0.00 0.00 0.00 0.00 0.00 0.00 0.00 0.00 0.00 0.00 0.00 0.01 0.03 0.06 0.10 0.13 0.16 0.18 0.19 0.20 0.20 0.19 0.19 0.14 0.08 0.04 0.04
0.00 0.00 0.00 0.00 0.00 0.00 0.00 0.00 0.00 0.00 0.00 0.00 0.00 0.00 0.00 0.00 0.00 0.00 0.00 0.00 0.00 0.00 0.00 0.00 0.00 0.00 0.00 0.00 0.00 0.00 0.01 0.03 0.06 0.08 0.10 0.11 0.13 0.15 0.16 0.17 0.17 0.16 0.13
0.00 0.00 0.00 0.00 0.00 0.00 0.00 0.00 0.00 0.00 0.00 0.00 0.00 0.00 0.00 0.00 0.00 0.00 0.00 0.00 0.00 0.00 0.00 0.00 0.00 0.00 0.00 0.00 0.00 0.00 0.00 0.00 0.00 0.00 0.01 0.02 0.05 0.07 0.09 0.11 0.11 0.10 0.10
MSLP
1004.93 1005.41 1006.33 1007.11 1008.02 1008.85 1009.41 1010.33 1010.95 1011.39 1011.32 1011.15 1010.78 1010.21 1009.64 1009.07 1008.49 1008.00 1007.67 1007.35 1007.24 1006.54 1006.65 1006.69 1006.86 1007.15 1007.37 1007.39 1007.73 1008.02 1008.67 1009.51 1009.79 1010.98 1011.84 1011.70 1011.27 1011.67 1012.22 1012.68 1012.98 1013.05 1012.98
1005.37 1006.30 1007.28 1008.11 1009.08 1010.15 1010.70 1011.21 1011.74 1011.87 1011.71 1011.67 1011.42 1011.06 1010.64 1009.79 1009.25 1008.40 1007.67 1007.16 1007.13 1006.98 1006.82 1006.35 1006.51 1006.58 1006.71 1006.99 1007.27 1007.75 1008.64 1009.33 1009.46 1010.47 1011.39 1012.46 1012.16 1011.70 1011.88 1012.16 1012.77 1012.86 1013.00
1005.04 1006.73 1008.41 1009.49 1010.14 1010.89 1011.43 1012.13 1012.44 1012.39 1012.23 1011.94 1011.56 1011.20 1010.87 1010.31 1009.86 1009.17 1008.38 1007.51 1007.34 1006.99 1006.60 1006.07 1005.87 1005.90 1006.09 1006.36 1006.65 1007.60 1008.66 1006.66 1009.24 1010.21 1010.60 1012.19 1011.66 1011.61 1011.82 1011.77 1012.16 1012.68 1012.77
1005.70 1006.96 1008.68 1010.24 1011.21 1011.51 1012.04 1013.08 1013.24 1013.07 1012.71 1012.32 1011.87 1012.08 1011.93 1011.15 1010.33 1009.86 1008.91 1008.15 1007.35 1007.06 1006.51 1005.98 1005.04 1005.00 1005.31 1005.62 1005.96 1006.97 1007.49 1007.17 1010.01 1010.42 1009.58 1010.66 1010.64 1011.07 1011.64 1011.61 1011.98 1012.05 1012.22
1006.44 1007.82 1009.09 1010.53 1010.99 1011.72 1013.00 1013.96 1013.90 1013.47 1013.01 1012.59 1012.49 1012.47 1012.13 1011.65 1010.64 1009.72 1008.84 1008.08 1007.54 1006.84 1006.20 1005.53 1004.61 1003.92 1004.40 1004.77 1005.28 1006.05 1006.53 1007.00 1007.25 1007.82 1009.94 1009.95 1010.19 1010.08 1010.24 1011.22 1011.93 1012.11 1011.74
1008.54 1009.37 1009.61 1010.77 1011.45 1012.62 1013.77 1014.40 1014.25 1013.58 1013.14 1012.89 1012.86 1012.60 1012.26 1011.56 1010.67 1009.73 1008.87 1008.24 1007.51 1006.64 1005.77 1005.07 1004.16 1003.16 1003.27 1003.77 1004.13 1004.57 1005.46 1006.17 1006.55 1006.74 1007.53 1007.43 1008.79 1009.17 1009.01 1009.97 1010.97 1011.33 1011.10
1009.25 1010.57 1010.94 1012.20 1012.11 1013.86 1014.42 1014.57 1014.65 1014.20 1013.69 1013.24 1012.76 1012.82 1012.36 1011.62 1010.71 1009.79 1008.72 1008.18 1007.23 1006.25 1005.27 1004.51 1003.61 1002.68 1002.34 1002.97 1003.44 1003.82 1004.26 1004.82 1005.93 1006.20 1006.45 1006.91 1007.04 1007.52 1008.19 1008.53 1009.82 1010.76 1010.63
1010.36 1011.44 1012.41 1013.09 1013.73 1014.54 1014.96 1015.08 1015.07 1014.98 1014.55 1013.81 1013.15 1013.00 1012.08 1011.44 1010.59 1009.85 1008.98 1008.41 1007.15 1005.71 1004.62 1003.86 1002.82 1002.23 1001.77 1001.93 1003.03 1003.32 1003.30 1003.72 1004.43 1005.10 1005.43 1005.86 1006.25 1006.82 1007.19 1007.29 1008.67 1009.85 1010.06
1011.88 1012.48 1012.81 1013.70 1014.45 1015.34 1015.37 1015.45 1015.44 1015.46 1014.99 1014.20 1013.64 1012.96 1012.33 1011.47 1010.63 1009.80 1009.09 1008.03 1006.58 1005.23 1003.47 1002.70 1002.10 1001.67 1001.09 1000.07 1001.74 1002.15 1002.57 1002.83 1003.46 1004.11 1004.90 1005.20 1005.39 1006.35 1006.54 1006.55 1007.29 1007.63 1009.12
1013.15 1014.14 1013.92 1014.93 1015.47 1015.83 1015.69 1016.02 1016.01 1015.68 1015.46 1014.65 1013.77 1013.11 1012.49 1011.70 1010.82 1009.82 1008.77 1007.86 1006.38 1005.12 1003.32 1001.49 1000.97 1000.58 1000.49 1000.43 1000.79 1001.11 1001.59 1002.05 1002.65 1003.54 1003.82 1005.06 1005.59 1005.92 1005.30 1005.76 1006.50 1006.42 1007.66
1014.55 1014.86 1015.77 1016.29 1016.53 1016.59 1016.49 1016.55 1016.17 1015.86 1015.55 1014.75 1013.99 1013.26 1012.53 1011.82 1011.02 1010.13 1009.08 1007.70 1006.28 1004.98 1002.91 1001.36 999.41 999.09 999.05 999.22 999.72 1000.09 1000.76 1001.27 1002.37 1002.91 1003.62 1004.29 1004.71 1005.10 1004.84 1004.08 1005.61 1006.17 1006.91
1016.04 1016.60 1016.86 1016.94 1017.28 1017.16 1016.84 1016.52 1016.50 1016.50 1015.91 1015.29 1014.19 1013.62 1013.17 1012.50 1011.29 1010.49 1009.07 1007.66 1006.45 1004.81 1003.40 1001.68 999.79 998.30 997.93 998.24 999.07 999.13 999.88 1000.47 1001.27 1001.64 1002.42 1003.09 1003.27 1003.29 1003.79 1003.79 1004.58 1005.58 1006.19
1016.67 1017.05 1017.42 1017.47 1017.60 1017.79 1017.48 1017.39 1017.35 1017.02 1016.48 1015.58 1014.73 1013.96 1013.79 1013.01 1011.61 1010.70 1009.20 1008.07 1006.64 1005.05 1003.80 1002.56 1001.07 999.42 997.99 998.27 998.71 998.91 999.44 999.91 1000.12 1000.70 1001.22 1001.78 1002.29 1002.71 1003.20 1003.67 1004.30 1004.70 1005.83
1017.01 1017.46 1017.98 1018.39 1018.45 1018.43 1018.44 1018.14 1017.66 1017.17 1016.52 1015.87 1015.15 1014.85 1014.32 1013.42 1012.46 1010.97 1009.91 1008.52 1007.32 1005.79 1004.55 1003.42 1002.06 1001.21 1000.77 999.05 999.75 999.20 999.24 999.55 1000.09 1000.53 1000.47 1001.27 1001.68 1001.79 1002.75 1003.19 1003.60 1004.36 1005.53
1018.02 1018.65 1018.94 1019.57 1019.51 1019.23 1018.90 1018.54 1018.01 1017.33 1017.01 1016.56 1016.27 1015.73 1015.00 1014.14 1012.73 1011.51 1010.53 1009.38 1008.29 1007.18 1006.38 1005.14 1004.03 1002.91 1001.77 1002.28 1001.22 999.89 999.20 999.54 1000.03 1000.67 1001.24 1001.55 1002.08 1001.49 1002.22 1002.55 1003.53 1004.30 1005.03
1019.97 1020.51 1020.71 1020.45 1019.93 1019.80 1019.50 1019.15 1018.74 1018.32 1017.93 1017.45 1017.08 1016.10 1015.60 1014.64 1013.26 1012.25 1011.19 1010.24 1009.23 1008.77 1007.85 1006.61 1005.24 1003.96 1003.66 1002.43 1001.08 999.59 998.86 999.45 1000.04 1001.04 1001.86 1002.39 1002.48 1002.65 1002.87 1003.29 1004.05 1004.37 1004.95
1020.90 1020.92 1021.05 1020.91 1020.66 1020.68 1020.56 1020.09 1019.53 1019.23 1018.55 1018.03 1017.55 1016.96 1016.47 1014.97 1014.05 1013.02 1012.05 1011.52 1010.57 1010.34 1008.83 1008.14 1006.95 1005.82 1004.90 1003.63 1001.50 1002.17 1000.88 1000.83 1001.29 1001.91 1002.54 1003.08 1003.41 1003.37 1003.97 1004.29 1004.93 1005.49 1005.94
1021.31 1021.56 1021.59 1021.52 1021.53 1021.46 1021.15 1020.59 1020.12 1019.81 1019.40 1018.76 1018.36 1017.83 1016.67 1015.69 1014.76 1013.82 1013.09 1012.15 1011.78 1011.15 1009.89 1009.23 1008.59 1007.56 1006.68 1005.33 1003.08 1004.74 1003.38 1004.52 1003.86 1004.11 1003.94 1004.39 1004.43 1004.31 1004.20 1004.71 1005.58 1006.33 1006.88
1022.13 1022.42 1022.48 1022.35 1022.14 1021.90 1021.57 1021.14 1020.80 1020.52 1020.02 1019.51 1018.98 1018.19 1017.35 1016.61 1015.84 1015.06 1013.93 1013.49 1012.99 1012.06 1011.35 1010.77 1010.08 1009.31 1008.32 1007.19 1006.42 1005.75 1004.94 1006.56 1005.74 1006.48 1005.87 1005.81 1005.23 1005.08 1004.86 1005.27 1006.15 1007.08 1007.76
1022.81 1022.92 1022.95 1022.88 1022.66 1022.39 1021.97 1021.52 1021.18 1020.98 1020.65 1020.12 1019.63 1019.09 1018.20 1017.67 1016.77 1016.33 1015.55 1015.29 1014.30 1013.60 1012.89 1012.27 1011.79 1011.09 1010.42 1009.52 1008.49 1007.44 1007.42 1007.37 1007.20 1008.27 1008.07 1007.51 1006.59 1006.03 1005.93 1006.01 1006.70 1007.51 1008.58
1023.36 1023.48 1023.48 1023.39 1023.28 1022.96 1022.50 1021.94 1021.58 1021.35 1021.02 1020.75 1020.43 1019.56 1019.05 1018.46 1017.90 1017.53 1017.17 1016.54 1015.59 1015.03 1014.35 1013.66 1013.17 1012.65 1011.90 1011.26 1010.50 1009.76 1009.04 1008.90 1008.99 1009.51 1009.31 1008.89 1008.60 1008.09 1007.58 1007.05 1007.48 1008.38 1009.17
1023.88 1023.98 1024.09 1024.12 1023.92 1023.38 1022.81 1022.51 1022.14 1021.70 1021.38 1021.06 1020.72 1020.34 1019.80 1019.21 1018.91 1018.66 1018.24 1017.58 1016.95 1016.31 1015.82 1015.11 1014.56 1014.22 1013.53 1012.86 1012.25 1011.66 1011.31 1010.88 1010.57 1010.57 1011.20 1010.13 1010.51 1010.15 1008.32 1008.56 1008.87 1009.14 1009.21
1024.51 1024.65 1024.59 1024.51 1024.42 1024.11 1023.81 1023.45 1022.81 1022.10 1022.00 1021.58 1021.10 1020.66 1020.37 1020.21 1020.06 1019.82 1019.34 1018.70 1018.12 1017.71 1017.19 1016.76 1016.46 1015.96 1015.27 1014.59 1013.91 1013.09 1012.44 1012.19 1012.29 1012.38 1011.85 1011.22 1010.98 1011.03 1009.75 1009.93 1009.86 1009.92 1010.10
1025.26 1025.21 1025.27 1025.32 1025.40 1025.29 1024.89 1024.34 1023.68 1022.96 1022.42 1022.16 1021.77 1021.24 1021.10 1021.15 1021.02 1020.78 1020.53 1020.08 1019.59 1019.16 1018.73 1018.32 1017.73 1017.29 1016.53 1015.87 1015.28 1014.60 1014.15 1013.84 1013.86 1013.44 1012.66 1012.47 1012.15 1011.66 1011.24 1011.04 1011.42 1011.41 1011.79
1026.08 1026.17 1026.37 1026.58 1026.54 1026.22 1025.84 1025.36 1024.67 1023.96 1023.45 1023.05 1022.66 1022.21 1021.93 1021.76 1021.73 1021.61 1021.39 1021.18 1020.88 1020.45 1020.10 1019.75 1019.31 1018.38 1017.70 1017.19 1016.74 1016.16 1015.62 1015.32 1015.16 1014.48 1013.97 1013.81 1013.47 1013.27 1013.06 1013.07 1012.81 1012.85 1012.53
1026.79 1027.15 1027.39 1027.45 1027.39 1027.09 1026.72 1026.17 1025.63 1024.96 1024.38 1023.84 1023.39 1023.14 1022.90 1022.74 1022.46 1022.15 1022.13 1022.01 1021.62 1021.41 1021.11 1020.73 1020.23 1019.70 1019.16 1018.42 1017.71 1017.21 1016.75 1016.38 1015.95 1015.53 1015.65 1015.53 1015.23 1015.01 1015.09 1014.77 1014.43 1014.35 1013.67
Thickness
5638 5642 5645 5647 5645 5641 5639 5632 5629 5626 5628 5631 5637 5642 5648 5655 5661 5667 5670 5672 5672 5679 5683 5684 5681 5678 5677 5679 5676 5672 5666 5658 5660 5649 5643 5648 5654 5654 5652 5650 5649 5650 5650
5620 5616 5623 5625 5623 5618 5615 5614 5610 5610 5614 5616 5620 5625 5629 5637 5643 5652 5659 5663 5664 5665 5669 5675 5673 5673 5671 5668 5666 5660 5651 5647 5651 5640 5636 5627 5635 5643 5645 5645 5641 5642 5641
5611 5599 5602 5604 5602 5599 5594 5593 5592 5594 5598 5602 5607 5612 5616 5622 5627 5634 5642 5651 5653 5656 5660 5665 5666 5667 5664 5661 5657 5649 5640 5627 5626 5631 5629 5615 5625 5631 5632 5638 5637 5635 5634
5585 5595 5592 5586 5583 5577 5576 5570 5573 5578 5583 5589 5595 5593 5595 5604 5613 5618 5627 5634 5641 5643 5648 5653 5660 5657 5657 5651 5650 5640 5634 5641 5619 5619 5621 5622 5628 5623 5623 5629 5628 5631 5631
5580 5582 5578 5571 5571 5566 5554 5552 5556 5563 5570 5575 5578 5580 5583 5590 5600 5608 5616 5622 5626 5631 5636 5642 5649 5652 5647 5645 5641 5632 5629 5631 5629 5628 5614 5620 5624 5626 5626 5621 5618 5619 5626
5560 5563 5570 5561 5555 5546 5539 5537 5541 5551 5558 5562 5564 5568 5572 5579 5588 5595 5603 5607 5613 5619 5626 5631 5637 5644 5641 5633 5634 5625 5619 5618 5619 5622 5624 5632 5625 5625 5626 5620 5614 5614 5622
5548 5543 5546 5538 5542 5528 5523 5527 5527 5534 5541 5548 5554 5555 5560 5567 5574 5582 5592 5595 5601 5608 5614 5617 5621 5630 5632 5623 5617 5612 5611 5613 5608 5612 5617 5621 5626 5626 5624 5622 5612 5607 5616
5535 5531 5526 5522 5517 5513 5511 5510 5513 5516 5523 5532 5539 5541 5551 5557 5564 5571 5578 5578 5587 5596 5602 5605 5613 5617 5619 5615 5604 5604 5605 5607 5608 5610 5614 5618 5621 5617 5618 5622 5611 5604 5610
5519 5518 5518 5510 5504 5498 5499 5499 5502 5503 5509 5518 5524 5531 5537 5544 5552 5559 5563 5568 5576 5584 5597 5600 5605 5606 5610 5619 5603 5601 5603 5606 5604 5604 5605 5608 5613 5610 5611 5619 5613 5613 5608
5500 5494 5504 5494 5489 5487 5489 5486 5487 5493 5495 5504 5512 5519 5524 5531 5539 5547 5553 5556 5565 5571 5585 5599 5601 5601 5602 5605 5603 5604 5603 5604 5605 5597 5599 5596 5599 5602 5613 5611 5608 5613 5609
5484 5483 5478 5475 5472 5472 5474 5475 5478 5481 5484 5493 5500 5506 5513 5519 5526 5531 5537 5546 5554 5561 5576 5587 5601 5604 5605 5604 5605 5608 5604 5601 5593 5591 5594 5594 5593 5596 5604 5615 5607 5607 5605
5466 5463 5461 5462 5458 5459 5464 5468 5466 5465 5471 5478 5488 5493 5496 5501 5511 5516 5526 5535 5541 5551 5562 5573 5588 5602 5607 5605 5600 5605 5603 5601 5594 5597 5593 5594 5599 5607 5605 5612 5608 5603 5603
5455 5451 5448 5449 5448 5448 5451 5451 5449 5451 5456 5465 5473 5480 5480 5485 5498 5503 5514 5521 5529 5539 5548 5556 5567 5582 5599 5600 5598 5600 5599 5599 5601 5600 5602 5599 5593 5600 5601 5600 5600 5602 5597
5448 5444 5439 5435 5434 5434 5434 5435 5437 5441 5448 5454 5460 5461 5465 5472 5479 5491 5498 5507 5513 5523 5532 5540 5551 5556 5560 5575 5580 5592 5594 5595 5592 5591 5597 5595 5593 5599 5596 5597 5598 5596 5590
5428 5424 5422 5415 5415 5417 5419 5422 5427 5433 5435 5439 5439 5443 5449 5456 5467 5476 5482 5488 5494 5501 5506 5517 5526 5535 5537 5543 5556 5576 5591 5588 5586 5582 5581 5581 5580 5588 5590 5593 5591 5590 5588
5399 5394 5394 5397 5402 5403 5405 5408 5411 5415 5418 5421 5423 5431 5434 5441 5452 5459 5466 5470 5477 5478 5485 5495 5508 5520 5522 5537 5554 5570 5587 5583 5580 5574 5569 5569 5571 5572 5575 5576 5572 5575 5584
5385 5384 5382 5382 5384 5383 5384 5387 5394 5396 5403 5407 5410 5414 5416 5429 5435 5443 5449 5451 5456 5457 5470 5475 5486 5498 5506 5520 5542 5541 5555 5560 5560 5559 5558 5557 5556 5561 5560 5561 5556 5555 5555
5370 5367 5364 5364 5363 5364 5367 5373 5377 5380 5384 5390 5392 5396 5406 5413 5420 5427 5432 5439 5439 5443 5454 5460 5465 5476 5485 5498 5518 5508 5527 5521 5528 5530 5539 5538 5542 5546 5551 5549 5545 5541 5540
5355 5347 5346 5346 5347 5349 5353 5358 5362 5366 5371 5375 5379 5386 5392 5397 5403 5408 5418 5420 5422 5429 5435 5440 5448 5455 5465 5477 5486 5495 5508 5487 5505 5504 5512 5519 5528 5532 5537 5535 5533 5529 5525
5344 5342 5340 5339 5340 5343 5348 5354 5359 5361 5363 5368 5372 5376 5381 5383 5389 5390 5397 5397 5404 5410 5417 5422 5427 5435 5441 5451 5463 5475 5477 5483 5488 5483 5488 5497 5508 5515 5519 5521 5521 5515 5508
5336 5335 5335 5335 5336 5339 5344 5350 5354 5355 5356 5358 5360 5366 5370 5372 5375 5375 5377 5381 5389 5394 5400 5406 5410 5415 5424 5431 5440 5449 5455 5460 5464 5465 5470 5477 5482 5489 5496 5503 5503 5499 5494
5333 5332 5330 5329 5332 5338 5343 5345 5347 5350 5352 5353 5356 5359 5363 5367 5367 5365 5365 5370 5375 5380 5383 5390 5394 5397 5404 5411 5418 5424 5430 5436 5442 5443 5442 5455 5456 5461 5479 5480 5480 5481 5483
5329 5328 5329 5330 5331 5332 5335 5338 5343 5348 5347 5350 5355 5357 5360 5359 5357 5356 5358 5362 5365 5366 5370 5372 5374 5378 5383 5389 5396 5403 5410 5414 5416 5417 5424 5432 5438 5440 5454 5456 5460 5462 5462
5326 5326 5325 5325 5325 5326 5329 5333 5337 5343 5346 5347 5349 5353 5352 5349 5348 5347 5348 5349 5352 5354 5357 5359 5363 5364 5369 5373 5377 5383 5387 5390 5391 5396 5405 5409 5414 5420 5426 5432 5432 5434 5435
5319 5320 5320 5319 5319 5321 5323 5326 5330 5334 5337 5339 5340 5341 5342 5342 5339 5338 5338 5337 5338 5341 5341 5342 5346 5353 5356 5359 5361 5364 5367 5369 5371 5377 5382 5385 5390 5394 5398 5401 5406 5409 5415
5317 5315 5314 5314 5314 5315 5317 5320 5322 5326 5328 5331 5333 5332 5332 5332 5332 5333 5328 5327 5328 5329 5329 5330 5332 5333 5337 5343 5347 5350 5352 5355 5357 5359 5357 5358 5362 5366 5367 5372 5378 5382 5391